{"data":{"norad_id":64036,"intl_designator":"2025-102Q","name":"STARLINK-34085","alt_names":[],"object_type":"PAYLOAD","status":"ACTIVE","operator":null,"country":"US","launch_date":"2025-05-16","launch_site_code":"AFWTR","launch_vehicle":null,"mission":null,"orbit_class":"UNKNOWN","rcs_meters":null,"size_class":null,"mass_kg":null,"dimensions":null,"purposes":["comms"],"wikipedia_slug":null,"has_3d_model":false,"image_url":null,"decayed_at":null,"tle_current":{"epoch":"2026-09-20T13:57:04.960224Z","epoch_age_seconds":136572,"freshness":"FRESH","line1":"1 64036U 25102Q   26263.58130741  .00005942  00000+0  20562-3 0  9994","line2":"2 64036  70.0011 340.7213 0003130 269.1675  90.9142 15.30423232 75207","mean_motion":15.30423232,"eccentricity":0.000313,"inclination_deg":70.0011,"raan_deg":340.7213,"arg_perigee_deg":269.1675,"mean_anomaly_deg":90.9142,"bstar":0.00020562,"rev_number":7520,"period_min":94.091619226021,"perigee_km":472.40372932584,"apogee_km":476.69351052391,"semimajor_km":6852.6856199249,"source":"CELESTRAK","updated_at":"2026-09-21T09:00:35.188705Z"}}}